TEVEL2-4

Last updated on Sun Aug 09 2026 00:03:16 GMT+0000 (Coordinated Universal Time)

1 63213U 25052D 26220.25108664 .00009218 00000+0 26218-3 0 9994 2 63213 97.3828 116.7752 0000386 5.6378 354.4870 15.36367358 78103
UTC large
Height (km)
Speed (km/s)
/
Latitude / Longitude
Inclination (degrees)
Orbital Period (minutes)
Azimuth
Elevation
Range (km)
Doppler Factor

Next 0 passes for location: London (51.5072 / 0.1276)

No passes found over London.
TEVEL2-4